Location: Newark
(45.6000°N, 12.8833°E)
Time: 04:37:52
(UTC+00:00)

Vanguard 3 - Pass Details

Date: 25 November 2019
Orbit: 508 x 3263 km, 33.3° (Epoch: 08 December)

Event Time Altitude Azimuth Distance (km) Brightness Sun altitude
Rises 15:56:43 0° 274° (W) 7,178 13.2 -5.0°
Reaches altitude 10° 16:01:56 10° 269° (W) 6,205 13.0 -5.9°
Maximum altitude 16:19:17 41° 208° (SSW) 3,747 11.0 -8.7°
Drops below altitude 10° 16:32:21 10° 145° (SE) 4,716 10.9 -10.8°
Sets 16:35:43 0° 138° (SE) 5,377 11.1 -11.4°
